{"data":{"norad_id":55111,"intl_designator":"2023-001DG","name":"ASTROCAST-0403","alt_names":[],"object_type":"PAYLOAD","status":"ACTIVE","operator":null,"country":"SWTZ","launch_date":"2023-01-03","launch_site_code":"AFETR","launch_vehicle":null,"mission":null,"orbit_class":"UNKNOWN","rcs_meters":null,"size_class":null,"mass_kg":null,"dimensions":null,"purposes":[],"wikipedia_slug":null,"has_3d_model":false,"image_url":null,"decayed_at":null,"tle_current":{"epoch":"2026-05-25T04:36:49.954176Z","epoch_age_seconds":72639,"freshness":"FRESH","line1":"1 55111U 23001DG  26145.19224484  .00024261  00000+0  82528-3 0  9993","line2":"2 55111  97.5608 238.9228 0005775  67.6249 292.5602 15.30418295141046","mean_motion":15.30418295,"eccentricity":0.0005775,"inclination_deg":97.5608,"raan_deg":238.9228,"arg_perigee_deg":67.6249,"mean_anomaly_deg":292.5602,"bstar":0.00082528,"rev_number":14104,"period_min":94.091922757628,"perigee_km":470.60592291678,"apogee_km":478.52079182955,"semimajor_km":6852.7003573732,"source":"CELESTRAK","updated_at":"2026-05-25T13:37:58.816847Z"}}}